#timestamp,LO_Frequency,Hit 
1501106415.3,286046990.4,N
1501106435.2,286046992.7,N
1501106455.9,286046990.2,N
1501106475.7,286046992.1,N
1501106495.6,286046994.3,N
1501106515.4,286046994.3,N
1501106535.2,286046993.5,N
1501106555.0,286046993.6,N
1501106555.9,286046993.6,N
1501106575.8,286046996.9,N
1501106595.6,286046854.1,N
1501106615.4,286046998.2,N
1501106635.3,286046998.4,N
1501106655.1,286046903.0,N
1501106656.0,286046903.0,N
1501106675.8,286046903.1,N
1501106695.7,286046901.2,N
1501106715.5,286046946.8,N
1501106735.3,286046937.5,N
1501106755.2,286047021.5,N
1501106775.9,286046847.8,N
1501106795.7,286046707.8,N
1501106815.5,286046699.0,N
1501106835.4,286047065.5,N
1501106855.2,286047289.7,N
1501106875.0,286047326.7,N
1501106875.9,286047326.7,N
1501106895.8,286047299.5,N
1501106915.6,286047257.7,N
1501106935.4,286047221.5,N
1501106955.3,286047295.0,N
1501106975.1,286047219.0,N
1501106976.0,286047219.0,N
1501106995.8,286047249.0,N
1501107015.7,286047238.8,N
1501107035.5,286047237.1,N
1501107055.3,286047235.3,N
1501107075.1,286047298.8,N
1501107095.9,286047181.5,N
1501107115.7,286047272.5,N
1501107135.5,286047343.0,N
1501107155.4,286047687.9,N
1501107175.2,286047067.0,N
1501107195.0,286047070.0,N
1501107195.9,286047070.0,N
1501107215.8,286047071.3,N
1501107235.6,286047095.9,N
1501107255.4,286047093.1,N
1501107275.3,286047142.3,N
1501107295.1,286047139.3,N
1501107296.0,286047139.3,N
1501107315.8,286047195.4,N
1501107335.7,286047195.2,N
1501107355.5,286047180.9,N
1501107375.3,286047319.7,N
1501107395.2,286047063.2,N
1501107415.9,286047008.1,N
1501107435.7,286047070.1,N
1501107455.6,286049126.9,Y
1501107475.4,286047278.4,N
1501107495.2,286046638.3,N
1501107515.1,286046117.0,Y
1501107516.0,286046117.0,Y
1501107535.8,286047184.5,N
1501107555.6,286047244.8,N
1501107575.5,286047248.3,N
1501107595.3,286047203.8,N
1501107615.1,286047178.3,N
1501107635.9,286047171.0,N
1501107655.7,286047175.5,N
1501107675.5,286047197.4,N
1501107695.4,286047192.0,N
1501107715.2,286047210.7,N
1501107735.0,286047156.6,N
1501107735.9,286047156.6,N
1501107755.7,286047183.4,N
1501107775.6,286047348.6,N
1501107795.4,286047075.4,N
1501107815.2,286047201.3,N
1501107835.1,286047139.2,N
1501107836.0,286047139.2,N
1501107855.8,286047206.0,N
1501107875.6,286047423.7,N
1501107895.5,286046857.0,N
1501107915.3,286047463.0,N
1501107935.1,286047751.8,Y
1501107955.9,286047746.4,Y
1501107975.7,286047765.8,Y
1501107995.5,286047723.6,N
1501108015.4,286047691.2,N
1501108035.2,286047705.3,N
1501108055.0,286047716.3,N
1501108055.9,286047716.3,N
1501108075.8,286047717.1,N
1501108095.6,286047716.7,N
1501108115.4,286047870.1,Y
1501108135.3,286047700.9,N
1501108155.1,286046710.3,N
1501108175.8,286047833.4,Y
1501108195.7,286047140.8,N
1501108215.5,286047138.1,N
1501108235.3,286046824.0,N
1501108255.2,286047187.3,N
1501108275.9,286047183.7,N
1501108295.7,286047132.8,N
1501108315.6,286047135.5,N
1501108335.4,286047124.7,N
1501108355.2,286045638.4,Y
1501108375.1,286046542.3,N
1501108376.0,286046542.3,N
1501108395.8,286045561.5,Y
1501108415.6,286045516.3,Y
1501108435.5,286045375.9,Y
1501108455.3,286045336.5,Y
1501108475.2,286045358.7,Y
1501108495.9,286045391.2,Y
1501108515.7,286045225.3,Y
1501108535.6,286045946.3,N
1501108555.4,286044759.2,Y
1501108575.3,286049448.4,Y
1501108595.1,286045425.1,Y
1501108596.0,286045425.1,Y
1501108615.8,286044746.8,Y
1501108635.7,286045468.3,Y
1501108655.5,286045448.9,Y
1501108675.4,286044919.4,Y
1501108695.2,286044941.9,Y
1501108715.0,286047335.1,N
1501108715.9,286047335.1,N
1501108735.8,286045283.0,Y
1501108755.6,286045319.9,Y
1501108775.4,286046863.8,N
1501108795.3,286046758.6,N
1501108815.1,286047140.4,N
1501108835.8,286047140.7,N
1501108855.7,286047156.0,N
1501108875.5,286047159.2,N
1501108895.3,286047593.7,N
1501108915.2,286047817.7,N
1501108935.9,286047882.4,N
1501108955.7,286047867.0,N
1501108975.6,286048016.8,N
1501108995.4,286048447.2,N
1501109015.2,286047726.4,N
1501109035.0,286047727.3,N
1501109035.9,286047727.3,N
1501109055.8,286047723.1,N
1501109075.6,286047722.1,N
1501109095.4,286046888.6,N
1501109115.3,286047952.8,N
1501109135.1,286047011.2,N
1501109136.0,286047011.2,N
1501109155.8,286047365.4,N
1501109175.7,286047705.9,N
1501109195.5,286047755.2,N
1501109215.3,286047130.4,N
1501109235.2,286047156.7,N
1501109255.9,286047156.8,N
1501109275.7,286047400.0,N
1501109295.5,286047404.4,N
1501109315.4,286047374.6,N
1501109335.2,286047407.6,N
1501109355.0,286047464.8,N
1501109355.9,286047464.8,N
1501109375.8,286047459.6,N
1501109395.6,286047459.9,N
1501109415.4,286047575.0,N
1501109435.3,286047569.5,N
1501109455.1,286047567.1,N
1501109456.0,286047567.1,N
1501109475.8,286047616.8,N
1501109495.7,286047891.8,N
1501109515.5,286047831.4,N
1501109535.3,286047721.9,N
1501109555.2,286047723.7,N
1501109575.9,286047637.6,N
1501109595.7,286047665.9,N
1501109615.5,286047700.2,N
1501109635.4,286047765.5,N
1501109655.2,286047072.4,N
1501109675.0,286047073.1,N
1501109675.9,286047073.1,N
1501109695.8,286047447.1,N
1501109715.6,286047516.2,N
1501109735.4,286047451.4,N
1501109755.3,286047387.2,N
1501109775.1,286046675.8,N
1501109776.0,286046675.8,N
1501109795.8,286047387.4,N
1501109815.7,286047424.5,N
1501109835.5,286047428.8,N
1501109855.3,286047262.7,N
1501109875.1,286047263.5,N
1501109895.9,286047262.8,N
1501109915.7,286047338.8,N
1501109935.5,286047280.6,N
1501109955.4,286047363.9,N
1501109975.2,286048249.3,N
1501109995.0,286048246.8,N
1501109995.9,286048246.8,N
